| time (UTC) | temp C | wind direction | speed KPH | gust KPH | rain 1hr cm | rain 24hr cm | rain mn cm | humidity % | barometer mb |
| 20260509011519 | 12 | 244 | 0.0 | 0.0 | 0.08 | 0.08 | 0.08 | 97 | 1009.5 |
| 20260509010526 | 12 | 252 | 0.0 | 0.0 | 0.08 | 0.08 | 0.08 | 95 | 1009.7 |
| 20260509005532 | 13 | 302 | 0.0 | 0.0 | 0.05 | 0.05 | 0.05 | 93 | 1009.4 |
| 20260509004538 | 13 | 270 | 0.0 | 0.0 | 0.00 | 0.00 | 0.00 | 91 | 1009.4 |
| 20260509003517 | 13 | 264 | 0.0 | 0.0 | 0.00 | 0.00 | 0.00 | 89 | 1009.2 |
| 20260509002523 | 13 | 269 | 0.0 | 0.0 | 0.00 | 0.00 | 0.00 | 87 | 1009.1 |
| 20260509001528 | 14 | 275 | 0.0 | 3.2 | 0.00 | 0.00 | 0.00 | 83 | 1009.2 |
| 20260509000536 | 15 | 251 | 0.0 | 8.0 | 0.00 | 0.00 | 0.00 | 79 | 1009.1 |
| 20260508235541 | 15 | 290 | 0.0 | 8.0 | 0.00 | 0.00 | 0.00 | 75 | 1009.0 |
| 20260508234519 | 15 | 292 | 1.6 | 8.0 | 0.00 | 0.00 | 0.00 | 74 | 1009.0 |
| 20260508233526 | 15 | 274 | 0.0 | 0.0 | 0.00 | 0.00 | 0.00 | 77 | 1009.0 |
| 20260508232531 | 15 | 259 | 0.0 | 0.0 | 0.00 | 0.00 | 0.00 | 80 | 1009.0 |
| 20260508231538 | 15 | 265 | 0.0 | 0.0 | 0.00 | 0.00 | 0.00 | 84 | 1009.0 |
| 20260508230516 | 15 | 255 | 0.0 | 0.0 | 0.00 | 0.00 | 0.00 | 78 | 1008.7 |
| 20260508225523 | 15 | 242 | 0.0 | 0.0 | 0.00 | 0.00 | 0.00 | 77 | 1008.7 |
| 20260508224528 | 15 | 219 | 0.0 | 0.0 | 0.00 | 0.00 | 0.00 | 77 | 1008.7 |
| 20260508223535 | 16 | 204 | 0.0 | 0.0 | 0.00 | 0.00 | 0.00 | 76 | 1008.7 |
| 20260508222541 | 16 | 203 | 0.0 | 0.0 | 0.00 | 0.00 | 0.00 | 76 | 1008.7 |
| 20260508221519 | 16 | 241 | 0.0 | 0.0 | 0.00 | 0.00 | 0.00 | 73 | 1008.7 |
| 20260508220525 | 16 | 257 | 0.0 | 0.0 | 0.00 | 0.00 | 0.00 | 70 | 1008.7 |
| 20260508215532 | 17 | 242 | 0.0 | 0.0 | 0.00 | 0.00 | 0.00 | 66 | 1008.7 |
| 20260508214538 | 17 | 227 | 0.0 | 0.0 | 0.00 | 0.00 | 0.00 | 64 | 1008.7 |
| 20260508213516 | 17 | 231 | 0.0 | 0.0 | 0.00 | 0.00 | 0.00 | 64 | 1008.9 |
| 20260508212522 | 17 | 269 | 0.0 | 0.0 | 0.00 | 0.00 | 0.00 | 63 | 1009.0 |
| 20260508211528 | 17 | 265 | 0.0 | 0.0 | 0.00 | 0.00 | 0.00 | 62 | 1009.0 |
| 20260508210535 | 17 | 253 | 0.0 | 0.0 | 0.00 | 0.00 | 0.00 | 61 | 1009.0 |
| 20260508205540 | 17 | 243 | 0.0 | 0.0 | 0.00 | 0.00 | 0.00 | 61 | 1009.1 |
| 20260508204519 | 17 | 247 | 0.0 | 8.0 | 0.00 | 0.00 | 0.00 | 60 | 1009.4 |
| 20260508203525 | 17 | 270 | 0.0 | 8.0 | 0.00 | 0.00 | 0.00 | 59 | 1009.4 |
| 20260508202531 | 17 | 280 | 1.6 | 8.0 | 0.00 | 0.00 | 0.00 | 59 | 1009.5 |
| 20260508201537 | 17 | 273 | 1.6 | 8.0 | 0.00 | 0.00 | 0.00 | 58 | 1009.7 |
| 20260508200517 | 18 | 259 | 0.0 | 3.2 | 0.00 | 0.00 | 0.00 | 57 | 1009.7 |
| 20260508195522 | 18 | 253 | 1.6 | 12.9 | 0.00 | 0.00 | 0.00 | 56 | 1009.7 |
| 20260508194529 | 18 | 259 | 3.2 | 16.1 | 0.00 | 0.00 | 0.00 | 54 | 1010.0 |
| 20260508193535 | 18 | 254 | 4.8 | 20.9 | 0.00 | 0.00 | 0.00 | 54 | 1009.7 |
| 20260508192540 | 18 | 267 | 6.4 | 16.1 | 0.00 | 0.00 | 0.00 | 53 | 1010.1 |
| 20260508191520 | 19 | 259 | 4.8 | 20.9 | 0.00 | 0.00 | 0.00 | 55 | 1010.1 |
| 20260508190525 | 19 | 239 | 1.6 | 12.9 | 0.00 | 0.00 | 0.00 | 53 | 1010.3 |
| 20260508185531 | 19 | 242 | 1.6 | 16.1 | 0.00 | 0.00 | 0.00 | 53 | 1010.4 |
| 20260508184537 | 19 | 236 | 3.2 | 16.1 | 0.00 | 0.00 | 0.00 | 53 | 1010.5 |
| 20260508183516 | 18 | 251 | 3.2 | 12.9 | 0.00 | 0.00 | 0.00 | 54 | 1010.4 |
| 20260508182522 | 18 | 263 | 6.4 | 16.1 | 0.00 | 0.00 | 0.00 | 55 | 1010.7 |
| 20260508181528 | 18 | 262 | 6.4 | 24.1 | 0.00 | 0.00 | 0.00 | 56 | 1010.8 |
| 20260508180535 | 18 | 267 | 1.6 | 12.9 | 0.00 | 0.00 | 0.00 | 57 | 1010.9 |
| 20260508175540 | 18 | 264 | 1.6 | 12.9 | 0.00 | 0.00 | 0.00 | 59 | 1011.1 |
| 20260508174519 | 18 | 261 | 1.6 | 16.1 | 0.00 | 0.00 | 0.00 | 58 | 1011.2 |
| 20260508173525 | 18 | 250 | 3.2 | 12.9 | 0.00 | 0.00 | 0.00 | 58 | 1011.4 |
| 20260508172531 | 18 | 239 | 1.6 | 8.0 | 0.00 | 0.00 | 0.00 | 58 | 1011.5 |
| 20260508171537 | 18 | 256 | 1.6 | 8.0 | 0.00 | 0.00 | 0.00 | 57 | 1011.7 |
| 20260508170516 | 18 | 268 | 3.2 | 24.1 | 0.00 | 0.00 | 0.00 | 57 | 1011.8 |
| 20260508165522 | 18 | 267 | 4.8 | 16.1 | 0.00 | 0.00 | 0.00 | 56 | 1011.9 |
| 20260508164527 | 19 | 262 | 4.8 | 20.9 | 0.00 | 0.00 | 0.00 | 56 | 1012.2 |
| 20260508163534 | 18 | 280 | 4.8 | 16.1 | 0.00 | 0.00 | 0.00 | 57 | 1012.2 |
| 20260508162540 | 18 | 262 | 4.8 | 24.1 | 0.00 | 0.00 | 0.00 | 56 | 1012.4 |
| 20260508161519 | 18 | 266 | 6.4 | 20.9 | 0.00 | 0.00 | 0.00 | 58 | 1012.4 |
| 20260508160525 | 18 | 268 | 1.6 | 16.1 | 0.00 | 0.00 | 0.00 | 59 | 1012.2 |
| 20260508155531 | 18 | 253 | 3.2 | 16.1 | 0.00 | 0.00 | 0.00 | 58 | 1012.4 |
| 20260508154537 | 17 | 264 | 3.2 | 20.9 | 0.00 | 0.00 | 0.00 | 59 | 1012.5 |
| 20260508153516 | 17 | 269 | 3.2 | 16.1 | 0.00 | 0.00 | 0.00 | 60 | 1012.5 |
| 20260508152522 | 17 | 249 | 4.8 | 20.9 | 0.00 | 0.00 | 0.00 | 60 | 1012.6 |
| 20260508151528 | 16 | 268 | 4.8 | 20.9 | 0.00 | 0.00 | 0.00 | 60 | 1012.9 |
| 20260508150534 | 16 | 226 | 1.6 | 12.9 | 0.00 | 0.00 | 0.00 | 61 | 1012.9 |
| 20260508145540 | 15 | 267 | 6.4 | 16.1 | 0.00 | 0.00 | 0.00 | 61 | 1012.9 |
| 20260508144519 | 15 | 266 | 1.6 | 16.1 | 0.00 | 0.00 | 0.00 | 63 | 1012.9 |
| 20260508143525 | 15 | 271 | 3.2 | 12.9 | 0.00 | 0.00 | 0.00 | 63 | 1012.9 |
| 20260508142531 | 15 | 271 | 4.8 | 16.1 | 0.00 | 0.00 | 0.00 | 62 | 1013.1 |
| 20260508141537 | 15 | 257 | 6.4 | 20.9 | 0.00 | 0.00 | 0.00 | 62 | 1012.9 |
| 20260508140516 | 14 | 279 | 4.8 | 24.1 | 0.00 | 0.00 | 0.00 | 63 | 1013.2 |
| 20260508135521 | 15 | 266 | 3.2 | 12.9 | 0.00 | 0.00 | 0.00 | 63 | 1013.2 |
| 20260508134527 | 14 | 263 | 4.8 | 16.1 | 0.00 | 0.00 | 0.00 | 63 | 1013.2 |
| 20260508133534 | 13 | 253 | 3.2 | 16.1 | 0.00 | 0.00 | 0.00 | 64 | 1013.2 |
| 20260508132539 | 13 | 276 | 1.6 | 12.9 | 0.00 | 0.00 | 0.00 | 67 | 1013.2 |
| 20260508131519 | 13 | 270 | 1.6 | 12.9 | 0.00 | 0.00 | 0.00 | 68 | 1013.2 |
| 20260508130524 | 12 | 264 | 1.6 | 12.9 | 0.00 | 0.00 | 0.00 | 68 | 1013.1 |
| 20260508125530 | 12 | 248 | 0.0 | 8.0 | 0.00 | 0.00 | 0.00 | 70 | 1012.9 |
| 20260508124537 | 12 | 248 | 0.0 | 3.2 | 0.00 | 0.00 | 0.00 | 72 | 1012.9 |
| 20260508123515 | 11 | 267 | 0.0 | 3.2 | 0.00 | 0.00 | 0.00 | 73 | 1013.1 |
| 20260508122522 | 10 | 253 | 0.0 | 0.0 | 0.00 | 0.00 | 0.00 | 76 | 1012.9 |
| 20260508121527 | 10 | 273 | 1.6 | 8.0 | 0.00 | 0.00 | 0.00 | 76 | 1012.9 |
| 20260508120534 | 10 | 255 | 0.0 | 8.0 | 0.00 | 0.00 | 0.00 | 77 | 1012.9 |
| 20260508115539 | 10 | 255 | 0.0 | 0.0 | 0.00 | 0.00 | 0.00 | 78 | 1012.9 |
| 20260508114518 | 8 | 253 | 0.0 | 0.0 | 0.00 | 0.00 | 0.00 | 79 | 1012.6 |
| 20260508113524 | 8 | 248 | 0.0 | 0.0 | 0.00 | 0.00 | 0.00 | 80 | 1012.5 |
| 20260508112530 | 8 | 232 | 0.0 | 0.0 | 0.00 | 0.00 | 0.00 | 84 | 1012.5 |
| 20260508111535 | 7 | 224 | 0.0 | 0.0 | 0.00 | 0.00 | 0.00 | 85 | 1012.5 |
| 20260508110515 | 7 | 228 | 0.0 | 0.0 | 0.00 | 0.00 | 0.00 | 85 | 1012.5 |
| 20260508105521 | 7 | 234 | 0.0 | 0.0 | 0.00 | 0.00 | 0.00 | 86 | 1012.5 |
| 20260508104527 | 7 | 198 | 0.0 | 0.0 | 0.00 | 0.00 | 0.00 | 86 | 1012.5 |
| 20260508103535 | 7 | 200 | 0.0 | 0.0 | 0.00 | 0.00 | 0.00 | 85 | 1012.5 |
| 20260508102539 | 7 | 224 | 0.0 | 0.0 | 0.00 | 0.00 | 0.00 | 84 | 1012.5 |
| 20260508101518 | 7 | 243 | 0.0 | 0.0 | 0.00 | 0.00 | 0.00 | 84 | 1012.2 |
| 20260508100524 | 7 | 226 | 0.0 | 0.0 | 0.00 | 0.00 | 0.00 | 83 | 1012.2 |
| 20260508095530 | 7 | 211 | 0.0 | 0.0 | 0.00 | 0.00 | 0.00 | 83 | 1012.5 |
| 20260508094536 | 7 | 216 | 0.0 | 0.0 | 0.00 | 0.00 | 0.00 | 82 | 1012.5 |
| 20260508093515 | 7 | 247 | 0.0 | 0.0 | 0.00 | 0.00 | 0.00 | 82 | 1012.5 |
| 20260508092522 | 7 | 242 | 0.0 | 0.0 | 0.00 | 0.00 | 0.00 | 82 | 1012.5 |
| 20260508091527 | 7 | 243 | 0.0 | 0.0 | 0.00 | 0.00 | 0.00 | 81 | 1012.5 |
| 20260508090533 | 7 | 241 | 0.0 | 0.0 | 0.00 | 0.00 | 0.00 | 82 | 1012.5 |
| 20260508085539 | 7 | 248 | 0.0 | 0.0 | 0.00 | 0.00 | 0.00 | 81 | 1012.6 |
| 20260508084518 | 7 | 247 | 0.0 | 0.0 | 0.00 | 0.00 | 0.00 | 80 | 1012.5 |
| 20260508083524 | 7 | 245 | 0.0 | 0.0 | 0.00 | 0.00 | 0.00 | 81 | 1012.5 |
| 20260508082532 | 7 | 237 | 0.0 | 0.0 | 0.00 | 0.00 | 0.00 | 80 | 1012.5 |
| 20260508081538 | 7 | 250 | 0.0 | 0.0 | 0.00 | 0.00 | 0.00 | 80 | 1012.5 |
| 20260508080516 | 7 | 257 | 0.0 | 0.0 | 0.00 | 0.00 | 0.00 | 79 | 1012.5 |
| 20260508075521 | 7 | 250 | 0.0 | 0.0 | 0.00 | 0.00 | 0.00 | 78 | 1012.5 |
| 20260508074526 | 7 | 251 | 0.0 | 0.0 | 0.00 | 0.00 | 0.00 | 78 | 1012.5 |
| 20260508073533 | 7 | 252 | 0.0 | 0.0 | 0.00 | 0.00 | 0.00 | 77 | 1012.5 |
| 20260508072539 | 7 | 247 | 0.0 | 0.0 | 0.00 | 0.00 | 0.00 | 77 | 1012.5 |
| 20260508071518 | 8 | 249 | 0.0 | 0.0 | 0.00 | 0.00 | 0.00 | 76 | 1012.8 |
| 20260508070524 | 8 | 253 | 0.0 | 0.0 | 0.00 | 0.00 | 0.00 | 75 | 1012.9 |
| 20260508065529 | 8 | 252 | 0.0 | 0.0 | 0.00 | 0.00 | 0.00 | 75 | 1012.9 |
| 20260508064536 | 8 | 264 | 0.0 | 0.0 | 0.00 | 0.00 | 0.00 | 74 | 1012.9 |
| 20260508063515 | 8 | 252 | 0.0 | 0.0 | 0.00 | 0.00 | 0.00 | 74 | 1013.0 |
| 20260508062521 | 8 | 228 | 0.0 | 0.0 | 0.00 | 0.00 | 0.00 | 73 | 1013.2 |
| 20260508061526 | 8 | 248 | 0.0 | 0.0 | 0.00 | 0.00 | 0.00 | 73 | 1013.1 |
| 20260508060533 | 8 | 249 | 0.0 | 0.0 | 0.00 | 0.00 | 0.00 | 72 | 1012.9 |
| 20260508055539 | 8 | 236 | 0.0 | 3.2 | 0.00 | 0.00 | 0.00 | 71 | 1013.1 |
| 20260508054517 | 9 | 259 | 0.0 | 0.0 | 0.00 | 0.00 | 0.00 | 71 | 1013.1 |
| 20260508053524 | 9 | 256 | 0.0 | 0.0 | 0.00 | 0.00 | 0.00 | 71 | 1013.2 |
| 20260508052530 | 9 | 261 | 0.0 | 0.0 | 0.00 | 0.00 | 0.00 | 71 | 1013.2 |
| 20260508051537 | 8 | 256 | 0.0 | 0.0 | 0.00 | 0.00 | 0.00 | 72 | 1013.2 |
| 20260508050514 | 8 | 266 | 0.0 | 0.0 | 0.00 | 0.00 | 0.00 | 72 | 1013.2 |
| 20260508045520 | 8 | 256 | 0.0 | 0.0 | 0.00 | 0.00 | 0.00 | 73 | 1013.2 |
| 20260508044526 | 9 | 245 | 0.0 | 3.2 | 0.00 | 0.00 | 0.00 | 72 | 1013.2 |
| 20260508043535 | 8 | 251 | 0.0 | 0.0 | 0.00 | 0.00 | 0.00 | 74 | 1013.2 |
| 20260508042538 | 9 | 243 | 0.0 | 0.0 | 0.00 | 0.00 | 0.00 | 75 | 1013.2 |
| 20260508041518 | 9 | 250 | 0.0 | 0.0 | 0.00 | 0.00 | 0.00 | 75 | 1013.2 |
| 20260508040523 | 9 | 229 | 0.0 | 0.0 | 0.00 | 0.00 | 0.00 | 74 | 1013.2 |
| 20260508035529 | 10 | 245 | 0.0 | 0.0 | 0.00 | 0.00 | 0.00 | 70 | 1013.2 |
| 20260508034536 | 10 | 245 | 0.0 | 0.0 | 0.00 | 0.00 | 0.00 | 70 | 1013.2 |
| 20260508033542 | 10 | 260 | 0.0 | 0.0 | 0.00 | 0.00 | 0.00 | 68 | 1013.3 |
| 20260508032521 | 10 | 247 | 0.0 | 0.0 | 0.00 | 0.00 | 0.00 | 67 | 1013.2 |
| 20260508031526 | 10 | 246 | 0.0 | 0.0 | 0.00 | 0.00 | 0.00 | 66 | 1013.2 |
| 20260508030533 | 11 | 263 | 0.0 | 0.0 | 0.00 | 0.00 | 0.00 | 66 | 1013.3 |
| 20260508025539 | 11 | 251 | 0.0 | 0.0 | 0.00 | 0.00 | 0.00 | 66 | 1013.5 |
| 20260508024518 | 10 | 250 | 0.0 | 0.0 | 0.00 | 0.00 | 0.00 | 68 | 1013.2 |
| 20260508023523 | 10 | 253 | 0.0 | 0.0 | 0.00 | 0.00 | 0.00 | 72 | 1013.2 |
| 20260508022529 | 9 | 206 | 0.0 | 0.0 | 0.00 | 0.00 | 0.00 | 78 | 1013.2 |
| 20260508021535 | 10 | 265 | 0.0 | 0.0 | 0.00 | 0.00 | 0.00 | 75 | 1013.2 |
| 20260508020541 | 10 | 242 | 0.0 | 0.0 | 0.00 | 0.00 | 0.00 | 71 | 1012.9 |
| 20260508015521 | 10 | 223 | 0.0 | 0.0 | 0.00 | 0.00 | 0.00 | 72 | 1012.9 |
| 20260508014527 | 10 | 208 | 0.0 | 0.0 | 0.00 | 0.00 | 0.00 | 72 | 1012.9 |
| 20260508013533 | 10 | 227 | 0.0 | 0.0 | 0.00 | 0.00 | 0.00 | 69 | 1013.2 |
| 20260508012538 | 10 | 225 | 0.0 | 0.0 | 0.00 | 0.00 | 0.00 | 69 | 1013.0 |